FW5162 Weather Reports


Display with metric or nautical units.
time (UTC)temp
F
wind
direction
speed
MPH
gust
MPH
rain 1hr
in
rain 24hr
in
rain mn
in
humidity
%
barometer
mb
20200703205401 61 215 6.0 12.0 0.00 0.15 0.14 88 1007.4
20200703204836 61 219 7.0 13.0 0.00 0.15 0.14 88 1007.3
20200703204334 61 229 6.0 13.0 0.00 0.15 0.14 88 1007.4
20200703203836 61 198 6.0 12.0 0.00 0.15 0.14 88 1007.3
20200703203312 61 198 7.0 14.0 0.00 0.15 0.14 88 1007.3
20200703202743 61 214 7.0 12.0 0.00 0.15 0.14 88 1007.1
20200703202219 61 222 6.0 12.0 0.00 0.15 0.14 88 1007.2
20200703201651 61 223 6.0 12.0 0.00 0.15 0.14 88 1007.1
20200703201129 62 200 6.0 12.0 0.00 0.15 0.14 88 1007.2
20200703200606 62 226 7.0 13.0 0.00 0.15 0.14 87 1007.3
20200703200105 62 223 7.0 13.0 0.00 0.15 0.14 87 1007.2
20200703195606 62 227 7.0 12.0 0.00 0.15 0.14 87 1007.2
20200703195103 62 186 6.0 12.0 0.00 0.15 0.14 87 1007.2
20200703194529 62 210 6.0 10.0 0.00 0.15 0.14 87 1007.3
20200703194003 62 213 7.0 13.0 0.00 0.15 0.14 87 1007.3
20200703193459 62 219 7.0 13.0 0.00 0.15 0.14 87 1007.4
20200703192957 62 218 6.0 13.0 0.00 0.15 0.14 87 1007.4
20200703192439 62 211 6.0 11.0 0.00 0.15 0.14 87 1007.4
20200703191914 63 223 8.0 14.0 0.00 0.15 0.14 86 1007.5
20200703191353 63 238 9.0 15.0 0.00 0.15 0.14 86 1007.3
20200703190825 63 225 8.0 15.0 0.00 0.15 0.14 86 1007.4
20200703190318 63 222 8.0 14.0 0.00 0.15 0.14 86 1007.4
20200703185801 63 215 8.0 14.0 0.00 0.15 0.14 86 1007.3
20200703185306 63 254 8.0 15.0 0.00 0.15 0.14 86 1007.4
20200703184751 63 213 8.0 15.0 0.00 0.15 0.14 85 1007.4
20200703184226 63 228 7.0 15.0 0.00 0.15 0.14 86 1007.4
20200703183724 63 194 6.0 13.0 0.00 0.15 0.14 87 1007.4
20200703183156 63 230 6.0 12.0 0.00 0.15 0.14 87 1007.3
20200703182648 63 205 7.0 13.0 0.00 0.15 0.14 87 1007.4
20200703182145 63 250 7.0 14.0 0.00 0.15 0.14 87 1007.4
20200703181622 63 188 7.0 14.0 0.00 0.15 0.14 86 1007.3
20200703181115 63 213 7.0 13.0 0.00 0.15 0.14 86 1007.3
20200703180551 63 239 7.0 13.0 0.00 0.15 0.14 86 1007.3
20200703180045 63 195 7.0 13.0 0.00 0.15 0.14 87 1007.4
20200703175534 63 236 7.0 14.0 0.00 0.15 0.14 87 1007.5
20200703175030 63 203 7.0 14.0 0.00 0.15 0.14 86 1007.4
20200703174525 63 215 5.0 12.0 0.00 0.15 0.14 87 1007.4
20200703174024 63 240 5.0 12.0 0.00 0.15 0.14 86 1007.4
20200703173453 63 226 7.0 12.0 0.00 0.15 0.14 86 1007.4
20200703172928 63 235 7.0 14.0 0.00 0.15 0.14 86 1007.4
20200703172425 63 227 6.0 14.0 0.00 0.15 0.14 87 1007.4
20200703171923 63 225 6.0 13.0 0.00 0.15 0.14 87 1007.4
20200703171419 63 215 8.0 16.0 0.00 0.15 0.14 86 1007.5
20200703170917 64 218 9.0 18.0 0.00 0.15 0.14 85 1007.4
20200703170415 64 246 9.0 18.0 0.00 0.15 0.14 84 1007.5
20200703165911 64 207 9.0 16.0 0.00 0.15 0.14 84 1007.6
20200703165408 64 223 9.0 14.0 0.00 0.15 0.14 85 1007.7
20200703164904 64 221 9.0 18.0 0.00 0.15 0.14 85 1007.7
20200703164400 64 244 9.0 16.0 0.00 0.15 0.14 84 1007.7
20200703163857 64 205 9.0 18.0 0.00 0.15 0.14 85 1007.7
20200703163353 64 254 10.0 17.0 0.00 0.15 0.14 85 1007.7
20200703162827 64 225 10.0 18.0 0.00 0.15 0.14 83 1007.8
20200703162308 64 231 9.0 17.0 0.00 0.15 0.14 84 1007.7
20200703161804 64 234 10.0 17.0 0.00 0.15 0.14 84 1007.9
20200703161301 64 211 9.0 19.0 0.00 0.15 0.14 84 1007.8
20200703160759 64 217 8.0 19.0 0.00 0.15 0.14 85 1007.8
20200703160231 64 200 7.0 16.0 0.00 0.15 0.14 86 1007.8
20200703155706 64 203 8.0 16.0 0.00 0.15 0.14 85 1007.9
20200703155203 64 241 8.0 13.0 0.00 0.15 0.14 85 1007.9
20200703154640 64 209 9.0 18.0 0.00 0.15 0.14 85 1008.0
20200703154136 64 211 11.0 18.0 0.00 0.15 0.14 84 1008.0
20200703153631 64 210 11.0 23.0 0.00 0.15 0.14 84 1008.0
20200703153127 64 240 11.0 23.0 0.00 0.15 0.14 84 1008.0
20200703152626 65 204 9.0 18.0 0.00 0.15 0.14 84 1008.0
20200703152058 65 232 10.0 19.0 0.00 0.15 0.14 85 1008.0
20200703151554 65 211 10.0 18.0 0.00 0.15 0.14 85 1008.0
20200703151028 65 195 9.0 16.0 0.00 0.15 0.14 85 1008.1
20200703150524 64 212 7.0 16.0 0.00 0.15 0.14 85 1008.1
20200703150000 64 222 6.0 12.0 0.00 0.15 0.14 87 1008.2
20200703145431 64 211 6.0 11.0 0.00 0.15 0.14 87 1008.2
20200703144929 63 223 7.0 11.0 0.00 0.15 0.14 87 1008.3
20200703144426 63 212 8.0 16.0 0.00 0.15 0.14 87 1008.4
20200703143923 63 243 9.0 16.0 0.00 0.15 0.14 87 1008.4
20200703143357 63 222 8.0 16.0 0.01 0.15 0.14 87 1008.5
20200703142832 63 238 8.0 16.0 0.01 0.15 0.14 87 1008.4
20200703142313 64 218 9.0 15.0 0.01 0.15 0.14 87 1008.4
20200703141811 64 209 8.0 15.0 0.01 0.15 0.14 85 1008.5
20200703141245 64 204 8.0 16.0 0.01 0.15 0.14 85 1008.4
20200703140747 64 207 9.0 16.0 0.01 0.15 0.14 85 1008.5
20200703140216 64 219 9.0 20.0 0.01 0.15 0.14 86 1008.5
20200703135713 64 201 10.0 20.0 0.01 0.15 0.14 87 1008.5
20200703135215 64 198 9.0 17.0 0.01 0.15 0.14 87 1008.5
20200703134651 64 240 8.0 17.0 0.01 0.15 0.14 88 1008.4
20200703134147 63 248 8.0 17.0 0.01 0.15 0.14 88 1008.3
20200703133619 63 230 8.0 15.0 0.02 0.15 0.14 88 1008.5
20200703133108 63 219 7.0 15.0 0.02 0.14 0.13 88 1008.4
20200703132612 63 244 8.0 15.0 0.02 0.14 0.13 88 1008.5
20200703132049 63 224 7.0 15.0 0.02 0.14 0.13 88 1008.6
20200703131551 63 221 7.0 13.0 0.05 0.14 0.13 89 1008.6
20200703131044 63 237 8.0 13.0 0.05 0.14 0.13 88 1008.7
20200703130519 63 220 8.0 16.0 0.05 0.14 0.13 89 1008.7
20200703130022 62 219 8.0 16.0 0.06 0.14 0.13 89 1008.7
20200703125511 62 204 7.0 14.0 0.06 0.14 0.13 89 1008.8
20200703125000 62 195 7.0 12.0 0.06 0.14 0.13 91 1008.9
20200703124458 62 209 8.0 15.0 0.09 0.14 0.13 91 1008.9
20200703123956 62 205 8.0 15.0 0.09 0.14 0.13 91 1009.0
20200703123433 61 233 7.0 14.0 0.08 0.13 0.13 91 1009.1
20200703122917 61 218 8.0 15.0 0.07 0.13 0.12 90 1009.0
20200703122409 61 220 8.0 15.0 0.06 0.12 0.11 90 1009.1
20200703121907 62 235 8.0 17.0 0.05 0.10 0.10 90 1009.1
20200703121343 62 234 7.0 17.0 0.04 0.09 0.09 89 1009.2
20200703120823 62 245 7.0 12.0 0.04 0.09 0.09 89 1009.2
20200703120252 62 227 7.0 12.0 0.03 0.09 0.08 89 1009.1
20200703115731 62 219 8.0 12.0 0.03 0.09 0.08 87 1009.2
20200703115224 62 217 8.0 19.0 0.02 0.08 0.08 86 1009.1
20200703114704 63 235 10.0 19.0 0.00 0.06 0.06 85 1009.1
20200703114201 63 221 11.0 23.0 0.00 0.06 0.05 82 1009.1
20200703113659 63 203 10.0 23.0 0.00 0.06 0.05 82 1009.1
20200703113156 63 207 10.0 18.0 0.00 0.06 0.05 83 1009.1
20200703112657 63 241 9.0 16.0 0.00 0.06 0.05 83 1009.1
20200703112139 63 246 8.0 15.0 0.00 0.06 0.05 83 1009.2
20200703111639 62 209 8.0 17.0 0.00 0.06 0.05 84 1009.2
20200703111137 62 212 8.0 17.0 0.00 0.06 0.05 84 1009.3
20200703110639 62 221 8.0 17.0 0.00 0.06 0.05 84 1009.2
20200703110136 62 238 9.0 17.0 0.00 0.06 0.05 84 1009.2
20200703105633 62 213 10.0 18.0 0.00 0.06 0.05 84 1009.1
20200703105113 62 218 10.0 18.0 0.00 0.06 0.05 84 1009.2
20200703104614 62 205 9.0 19.0 0.00 0.06 0.05 84 1009.2
20200703104112 62 227 9.0 19.0 0.00 0.06 0.05 84 1009.2
20200703103614 62 175 10.0 19.0 0.00 0.06 0.05 84 1009.2
20200703103113 62 215 11.0 23.0 0.00 0.06 0.05 84 1009.3
20200703102608 62 213 9.0 23.0 0.00 0.06 0.05 84 1009.4
20200703102110 62 207 8.0 15.0 0.00 0.06 0.05 84 1009.2
20200703101603 62 254 8.0 16.0 0.00 0.06 0.05 85 1009.0
20200703101057 62 217 9.0 16.0 0.00 0.06 0.05 85 1009.2
20200703100531 61 196 11.0 20.0 0.00 0.06 0.05 85 1009.2
20200703100006 61 215 10.0 19.0 0.00 0.06 0.05 85 1009.4
20200703095458 61 225 9.0 17.0 0.00 0.06 0.05 85 1009.4
20200703094933 61 197 10.0 19.0 0.00 0.06 0.05 85 1009.3
20200703094427 61 225 10.0 19.0 0.00 0.06 0.05 85 1009.3
20200703093901 61 190 9.0 18.0 0.00 0.06 0.05 86 1009.2
20200703093337 61 198 9.0 16.0 0.00 0.06 0.05 87 1009.3
20200703092808 60 181 8.0 17.0 0.00 0.06 0.05 88 1009.3
20200703092243 60 212 9.0 17.0 0.00 0.06 0.05 88 1009.4
20200703091716 60 223 10.0 17.0 0.00 0.06 0.05 88 1009.5
20200703091150 60 207 11.0 20.0 0.00 0.06 0.05 87 1009.5
20200703090623 61 207 11.0 20.0 0.00 0.06 0.05 87 1009.6
20200703090103 61 211 11.0 20.0 0.00 0.06 0.05 86 1009.6
20200703085534 61 194 11.0 20.0 0.00 0.06 0.05 85 1009.6
20200703085034 61 190 11.0 23.0 0.00 0.06 0.05 86 1009.6
20200703084536 61 233 10.0 23.0 0.00 0.06 0.05 85 1009.6
20200703084011 61 206 10.0 20.0 0.00 0.06 0.05 86 1009.6
20200703083506 61 206 10.0 18.0 0.00 0.06 0.05 86 1009.7
20200703083000 61 209 10.0 17.0 0.00 0.06 0.05 86 1009.6
20200703082457 61 225 10.0 17.0 0.00 0.06 0.05 85 1009.8
20200703081932 61 226 11.0 18.0 0.00 0.06 0.05 86 1009.9
20200703081428 61 235 11.0 18.0 0.00 0.06 0.05 85 1009.9
20200703080925 61 206 10.0 19.0 0.00 0.06 0.05 86 1009.9
20200703080401 61 221 11.0 17.0 0.00 0.06 0.05 87 1010.0
20200703075830 60 203 11.0 21.0 0.00 0.06 0.05 86 1010.1
20200703075330 60 225 11.0 21.0 0.00 0.06 0.05 86 1010.1
20200703074824 60 190 9.0 18.0 0.00 0.06 0.05 87 1010.1
20200703074304 60 213 9.0 17.0 0.00 0.06 0.05 88 1010.2
20200703073732 59 232 9.0 16.0 0.00 0.06 0.05 88 1010.0
20200703073206 59 216 9.0 17.0 0.00 0.06 0.05 89 1010.2
20200703072641 58 225 8.0 18.0 0.00 0.06 0.05 89 1010.2
20200703072137 58 224 8.0 18.0 0.00 0.06 0.05 89 1010.2
20200703071612 58 212 8.0 15.0 0.00 0.06 0.05 89 1010.2
20200703071044 58 208 8.0 15.0 0.00 0.06 0.05 89 1010.2
20200703070540 58 221 8.0 17.0 0.00 0.06 0.05 90 1010.2
20200703070019 58 197 7.0 17.0 0.00 0.06 0.05 90 1010.3
20200703065510 58 227 7.0 14.0 0.00 0.06 0.05 90 1010.3
20200703064944 58 234 7.0 14.0 0.01 0.06 0.05 90 1010.4
20200703064440 57 254 8.0 14.0 0.02 0.06 0.05 90 1010.4
20200703063937 57 215 7.0 15.0 0.03 0.06 0.05 91 1010.5
20200703063433 57 184 7.0 15.0 0.03 0.06 0.05 91 1010.4
20200703062932 57 215 8.0 18.0 0.03 0.06 0.05 91 1010.3
20200703062429 57 223 9.0 18.0 0.03 0.06 0.05 91 1010.4
20200703061924 57 204 9.0 17.0 0.03 0.06 0.05 91 1010.4
20200703061420 56 185 9.0 16.0 0.04 0.06 0.05 91 1010.5
20200703060854 56 219 8.0 17.0 0.05 0.06 0.05 91 1010.5
20200703060351 56 224 8.0 16.0 0.05 0.06 0.05 91 1010.5
20200703055821 56 190 9.0 17.0 0.05 0.06 0.05 91 1010.7
20200703055259 56 206 10.0 17.0 0.04 0.05 0.05 90 1010.6
20200703054754 56 230 10.0 16.0 0.04 0.05 0.04 90 1010.7
20200703054250 56 219 9.0 18.0 0.02 0.02 0.02 89 1010.8
20200703053747 57 227 10.0 14.0 0.02 0.02 0.02 89 1010.8
20200703053223 57 184 10.0 18.0 0.02 0.02 0.02 89 1010.8
20200703052655 57 216 9.0 16.0 0.02 0.02 0.02 88 1010.9
20200703052129 57 178 10.0 16.0 0.02 0.02 0.02 88 1010.9
20200703051602 57 226 10.0 18.0 0.02 0.02 0.02 87 1010.9
20200703051058 57 198 9.0 18.0 0.00 0.01 0.00 86 1010.9
20200703050531 57 213 9.0 16.0 0.00 0.01 0.00 85 1010.9
20200703050039 57 190 9.0 15.0 0.00 0.01 0.00 85 1010.9
20200703045522 57 212 8.0 21.0 0.00 0.01 0.00 84 1011.0
20200703044956 57 215 9.0 21.0 0.00 0.01 0.00 84 1011.0
20200703044452 57 255 10.0 18.0 0.00 0.01 0.00 83 1011.1
20200703043925 58 202 11.0 18.0 0.00 0.01 0.00 82 1011.0
20200703043423 58 196 11.0 22.0 0.00 0.01 0.00 82 1011.1
20200703042856 58 201 12.0 18.0 0.00 0.01 0.00 81 1011.0
20200703042331 58 165 15.0 27.0 0.00 0.01 0.00 81 1011.1
20200703041829 58 217 13.0 27.0 0.00 0.01 0.00 81 1011.1
20200703041301 58 240 12.0 22.0 0.00 0.01 0.00 81 1011.1
20200703040757 58 211 12.0 22.0 0.00 0.01 0.00 81 1011.2
20200703040227 58 209 12.0 21.0 0.00 0.01 0.00 81 1011.2
20200703035703 58 200 12.0 24.0 0.00 0.01 0.00 81 1011.3
20200703035136 58 219 11.0 24.0 0.00 0.01 0.00 81 1011.4
20200703034632 57 246 9.0 19.0 0.00 0.01 0.00 81 1011.5
20200703034128 57 227 10.0 19.0 0.00 0.01 0.00 81 1011.7
20200703033600 57 191 10.0 19.0 0.00 0.01 0.00 81 1011.8
20200703033059 57 211 8.0 17.0 0.00 0.01 0.00 81 1012.0
20200703032557 57 257 8.0 17.0 0.00 0.01 0.00 82 1011.8
20200703032105 57 221 8.0 17.0 0.00 0.01 0.00 82 1011.9
20200703031552 57 194 7.0 16.0 0.00 0.01 0.00 82 1012.2
20200703031052 57 211 9.0 17.0 0.00 0.01 0.00 83 1012.1
20200703030541 57 216 8.0 17.0 0.00 0.01 0.00 83 1012.1
20200703030016 56 248 8.0 14.0 0.00 0.01 0.00 83 1012.1
20200703025515 56 227 8.0 14.0 0.00 0.01 0.00 83 1012.3
20200703025021 56 193 9.0 18.0 0.00 0.01 0.00 83 1012.2
20200703024515 56 219 10.0 18.0 0.00 0.01 0.00 83 1012.4
20200703023953 56 232 9.0 16.0 0.00 0.01 0.00 83 1012.3
20200703023456 56 231 8.0 15.0 0.00 0.01 0.00 84 1012.5
20200703022949 56 221 7.0 14.0 0.00 0.01 0.00 84 1012.6
20200703022437 55 234 8.0 13.0 0.00 0.01 0.00 84 1012.6
20200703021926 55 198 8.0 14.0 0.00 0.01 0.00 84 1012.6
20200703021417 55 196 9.0 14.0 0.00 0.01 0.00 84 1012.6
20200703020859 55 205 9.0 17.0 0.00 0.01 0.00 84 1012.7
20200703020405 55 191 9.0 17.0 0.00 0.01 0.00 84 1012.8
20200703015846 55 180 9.0 16.0 0.00 0.01 0.00 83 1012.8
20200703015338 55 207 9.0 17.0 0.00 0.01 0.00 83 1012.9
20200703014822 55 196 10.0 17.0 0.00 0.01 0.00 83 1012.9
20200703014315 55 226 11.0 17.0 0.00 0.01 0.00 83 1013.0
20200703013813 55 187 10.0 17.0 0.00 0.01 0.00 83 1013.0
20200703013308 55 205 9.0 15.0 0.00 0.01 0.00 83 1013.1
20200703012808 55 181 9.0 18.0 0.00 0.01 0.00 83 1013.4
20200703012252 55 202 10.0 18.0 0.00 0.01 0.00 82 1013.3
20200703011759 55 229 10.0 17.0 0.00 0.01 0.00 82 1013.4
20200703011248 55 201 10.0 19.0 0.00 0.01 0.00 82 1013.4
20200703010747 55 209 11.0 21.0 0.00 0.01 0.00 82 1013.5
20200703010246 54 196 10.0 21.0 0.00 0.01 0.00 83 1013.5
20200703005725 54 198 10.0 20.0 0.00 0.01 0.00 83 1013.5
20200703005229 54 189 9.0 18.0 0.00 0.01 0.00 83 1013.7
20200703004711 54 179 9.0 17.0 0.00 0.01 0.00 83 1013.7
20200703004205 54 202 10.0 19.0 0.00 0.01 0.00 83 1013.8
20200703003648 54 199 8.0 19.0 0.00 0.01 0.00 83 1013.8
20200703003144 54 186 7.0 14.0 0.00 0.01 0.00 83 1013.9
20200703002627 54 187 8.0 16.0 0.00 0.01 0.00 83 1014.0
20200703002123 54 194 9.0 16.0 0.00 0.01 0.00 83 1014.0
20200703001602 53 180 9.0 16.0 0.00 0.01 0.00 83 1014.1
20200703001042 53 179 9.0 16.0 0.00 0.02 0.00 83 1014.1
20200703000517 53 208 8.0 15.0 0.00 0.02 0.00 83 1014.3
20200702235951 53 198 7.0 12.0 0.00 0.02 0.00 83 1014.4
20200702235438 53 226 7.0 11.0 0.01 0.02 0.00 83 1014.3
20200702234916 53 180 6.0 11.0 0.01 0.02 0.00 83 1014.5
20200702234353 53 155 6.0 15.0 0.01 0.02 0.00 83 1014.5
20200702233848 53 178 7.0 15.0 0.01 0.02 0.00 83 1014.5
20200702233343 53 190 6.0 12.0 0.01 0.02 0.00 82 1014.7
20200702232842 53 195 6.0 12.0 0.01 0.02 0.00 82 1014.6
20200702232347 53 174 6.0 11.0 0.01 0.02 0.00 82 1014.7
20200702231842 53 161 5.0 10.0 0.01 0.02 0.00 82 1015.0
20200702231319 53 182 5.0 10.0 0.01 0.02 0.00 82 1014.9
20200702230751 53 209 5.0 9.0 0.01 0.03 0.00 83 1015.1
20200702230236 53 202 5.0 10.0 0.01 0.04 0.00 82 1015.0
20200702225727 53 223 6.0 12.0 0.00 0.04 0.03 83 1015.0
20200702225202 53 211 6.0 12.0 0.00 0.04 0.03 82 1015.0
20200702224700 53 197 5.0 12.0 0.00 0.05 0.03 82 1015.2
20200702224142 54 214 8.0 16.0 0.00 0.06 0.03 82 1015.2
20200702223639 54 207 8.0 16.0 0.00 0.07 0.03 81 1015.3
20200702223136 54 241 7.0 13.0 0.00 0.08 0.03 81 1015.4
20200702222611 54 246 7.0 13.0 0.00 0.09 0.03 81 1015.3
20200702222112 55 223 8.0 12.0 0.00 0.09 0.03 80 1015.3
20200702221607 55 227 8.0 13.0 0.00 0.09 0.03 79 1015.3
20200702221110 55 231 7.0 15.0 0.00 0.09 0.03 79 1015.3
20200702220608 55 236 7.0 14.0 0.00 0.10 0.03 79 1015.6
20200702220108 55 196 8.0 16.0 0.00 0.11 0.03 79 1015.3
20200702215612 55 219 7.0 15.0 0.00 0.12 0.03 79 1015.6
20200702215107 55 219 8.0 14.0 0.00 0.12 0.03 79 1015.7
20200702214605 55 227 8.0 14.0 0.00 0.12 0.03 79 1015.6
20200702214100 55 208 8.0 15.0 0.00 0.12 0.03 79 1015.7
20200702213600 55 245 8.0 14.0 0.00 0.12 0.03 79 1015.8
20200702213108 56 230 7.0 14.0 0.00 0.12 0.03 80 1015.9
20200702212527 56 170 6.0 14.0 0.00 0.12 0.03 81 1015.9
20200702212030 56 212 7.0 14.0 0.00 0.13 0.03 81 1015.8
20200702211529 56 223 7.0 12.0 0.00 0.13 0.03 81 1015.9
20200702211018 56 228 7.0 15.0 0.00 0.13 0.03 81 1015.8
20200702210455 56 227 7.0 14.0 0.00 0.13 0.03 81 1015.9
20200702205927 56 221 7.0 14.0 0.00 0.13 0.03 81 1015.9